Location: Newark
(40.7119°N, 74.0097°W)
Time: 20:21:49
(UTC+00:00)

Tianhe-1 - Visible Passes

Search period start: 23 June 2021 00:00
Search period end: 03 July 2021 00:00
Orbit: 375 x 386 km, 41.5° (Epoch: 23 June)

Date Brightness Start Highest point End Pass type
(mag) Time Alt. Az. Time Alt. Az. Time Alt. Az.
23 Jun 1.0 07:35:04 49° SW 07:35:41 64° SSE 07:38:49 10° E visible
24 Jun 3.3 06:36:39 18° E 06:36:39 18° E 06:37:41 10° E visible
24 Jun 1.1 08:08:46 14° W 08:11:22 79° N 08:14:31 10° E visible
25 Jun 0.9 07:10:21 84° ESE 07:10:21 84° ESE 07:13:27 10° E visible
25 Jun 1.2 08:43:56 10° W 08:47:05 79° N 08:50:15 10° E visible
26 Jun 3.9 06:11:58 13° E 06:11:58 13° E 06:12:20 10° E visible
26 Jun 1.2 07:44:05 22° W 07:45:58 74° N 07:49:06 10° E visible
27 Jun 2.1 06:45:46 41° ENE 06:45:46 41° ENE 06:47:58 10° E visible
27 Jun 1.0 08:18:28 10° W 08:21:37 87° S 08:24:47 10° ESE visible
28 Jun 1.1 07:19:42 47° WNW 07:20:28 78° N 07:23:37 10° E visible
29 Jun 3.7 06:21:44 15° E 06:21:44 15° E 06:22:24 10° E visible
29 Jun 0.9 07:53:52 18° W 07:56:02 65° SSW 07:59:09 10° ESE visible
30 Jun 2.5 06:56:18 29° ESE 06:56:18 29° ESE 06:58:00 10° ESE visible
30 Jun 2.0 08:28:40 10° W 08:31:24 27° SSW 08:34:08 10° SE visible
01 Jul 2.3 07:31:33 28° SSE 07:31:33 28° SSE 07:33:18 10° SE visible
02 Jul 3.4 01:37:45 10° S 01:37:48 10° S 01:37:48 10° S visible
02 Jul 3.5 08:07:38 10° SSE 08:07:38 10° SSE 08:07:41 10° SSE visible
